Back to catalog

CZ-4C DEB

AliveSSO
NORAD 39212·DEBRIS·🇨🇳 China

Launched Jul 19, 2013 from Taiyuan Satellite Launch Center

Loading…

Next Passes (next 24 hours)

TLE

FreshSource: Space-Track

Epoch: Sep 14, 2026, 21:01 UTC

1 39212U 13037E   26257.87636707  .00003468  00000-0  35308-3 0  9990
2 39212  97.9418 274.5972 0005151  62.7242 297.4501 14.91388163708207

Track CZ-4C DEB in real time with AllMySat

Download on the App Store